Eugene, OR

8:46 PM PST on November 21, 2019 (GMT -0800)
Mahlon Sweet

Weather History for KEUG - September, 2019

Change the Weather History Date:

Saturday, September 28, 2019

  Actual Average Record
Temperature  
Mean Temperature 53 °F 58 °F  
Max Temperature 60 °F 73 °F 88 °F (2018)
Min Temperature 45 °F 44 °F 31 °F (1999)
Degree Days  
Heating Degree Days 12 7  
Month to date heating degree days 71 106  
Since 1 July heating degree days 83 173  
Cooling Degree Days 0 0  
Month to date cooling degree days 45 30  
Year to date cooling degree days 353 238  
Growing Degree Days 2 (Base 50)    
Moisture  
Dew Point 44 °F    
Average Humidity 71    
Maximum Humidity 92    
Minimum Humidity 49    
Precipitation  
Precipitation 0.47 in 0.06 in 1.22 in (1962)
Month to date precipitation 4.76 1.18  
Year to date precipitation 27.97 27.19  
Sea Level Pressure  
Sea Level Pressure 29.84 in    
Wind  
Wind Speed 6 mph (SW)    
Max Wind Speed 21 mph    
Max Gust Speed 25 mph    
Visibility 10 miles    
Events Rain    
T = Trace of Precipitation, MM = Missing Value Source: NWS Daily Summary

Daily Weather History Graph

Daily Weather History Graph

Search for Another Location

Airport or City:

Astronomy

Sep. 28, 2019 Rise Set
Actual Time 7:06 AM PDT 6:59 PM PDT
Civil Twilight 6:38 AM PDT 7:28 PM PDT
Nautical Twilight 6:04 AM PDT 8:01 PM PDT
Astronomical Twilight 5:30 AM PDT 8:35 PM PDT
Moon 6:47 AM PDT (9/28) 7:29 PM PDT (9/28)
Length of Visible Light 12h 50m
Length of Day
11h 52m
New Moon, 0% of the Moon is Illuminated
Sep 28
New Moon
Oct 5
First Quarter
Oct 13
Full
Oct 21
Last Quarter
Oct 27
New

Hourly Weather History & Observations

Time (PDT) Temp. Windchill Dew Point Humidity Pressure Visibility Wind Dir Wind Speed Gust Speed Precip Events Conditions
12:54 AM 53.1 °F - 48.0 °F 83% 29.86 in 10.0 mi West 3.5 mph - 0.00 in   Scattered Clouds
1:54 AM 51.1 °F - 46.0 °F 83% 29.85 in 10.0 mi SW 4.6 mph - N/A   Scattered Clouds
2:54 AM 51.1 °F - 46.9 °F 86% 29.85 in 10.0 mi WSW 8.1 mph - N/A   Mostly Cloudy
3:54 AM 51.1 °F - 46.9 °F 86% 29.83 in 10.0 mi SW 8.1 mph - 0.04 in Rain Light Rain
4:54 AM 48.9 °F - 44.1 °F 83% 29.81 in 10.0 mi SSW 8.1 mph - 0.12 in Rain Rain
5:54 AM 48.0 °F - 43.0 °F 83% 29.82 in 10.0 mi WSW 6.9 mph - 0.01 in   Overcast
6:54 AM 45.0 °F 41.8 °F 42.1 °F 90% 29.83 in 10.0 mi South 5.8 mph - N/A   Scattered Clouds
7:54 AM 45.0 °F 41.8 °F 42.1 °F 90% 29.83 in 10.0 mi SSE 5.8 mph - N/A   Scattered Clouds
8:54 AM 50.0 °F - 46.0 °F 86% 29.84 in 10.0 mi South 4.6 mph - N/A   Mostly Cloudy
9:54 AM 52.0 °F - 44.1 °F 74% 29.84 in 10.0 mi SW 8.1 mph - N/A   Mostly Cloudy
10:54 AM 55.0 °F - 45.0 °F 69% 29.84 in 10.0 mi SSW 3.5 mph - N/A   Mostly Cloudy
11:54 AM 57.0 °F - 46.0 °F 67% 29.83 in 10.0 mi SSW 3.5 mph - N/A   Mostly Cloudy
12:17 PM 54.0 °F - 46.0 °F 75% 29.84 in 10.0 mi West 11.5 mph - 0.00 in Rain Rain
12:45 PM 55.0 °F - 46.0 °F 72% 29.83 in 10.0 mi South 3.5 mph - 0.02 in   Mostly Cloudy
12:54 PM 55.9 °F - 44.1 °F 64% 29.83 in 10.0 mi Calm Calm - 0.02 in   Mostly Cloudy
1:54 PM 55.9 °F - 44.1 °F 64% 29.82 in 10.0 mi WSW 6.9 mph - N/A   Mostly Cloudy
2:54 PM 60.1 °F - 41.0 °F 49% 29.81 in 10.0 mi Variable 3.5 mph - 0.00 in   Mostly Cloudy
3:54 PM 55.9 °F - 45.0 °F 67% 29.82 in 10.0 mi NNW 5.8 mph - 0.01 in Rain Light Rain
4:54 PM 53.1 °F - 46.0 °F 77% 29.83 in 10.0 mi North 5.8 mph - 0.03 in Rain Rain
5:54 PM 48.9 °F - 45.0 °F 86% 29.87 in 6.0 mi NNW 13.8 mph - 0.16 in Rain Rain
6:54 PM 48.9 °F - 45.0 °F 86% 29.85 in 10.0 mi Variable 3.5 mph - 0.08 in   Mostly Cloudy
7:54 PM 48.9 °F - 45.0 °F 86% 29.86 in 10.0 mi WSW 3.5 mph - N/A   Mostly Cloudy
8:54 PM 46.9 °F - 44.1 °F 90% 29.87 in 10.0 mi SW 6.9 mph - N/A   Mostly Cloudy
9:54 PM 45.0 °F 41.8 °F 43.0 °F 93% 29.88 in 9.0 mi SSE 5.8 mph - N/A   Scattered Clouds
10:54 PM 44.1 °F - 42.1 °F 93% 29.88 in 8.0 mi Calm Calm - N/A   Partly Cloudy
11:36 PM 43.0 °F - 41.0 °F 93% 29.89 in 10.0 mi Calm Calm - N/A   Scattered Clouds
11:54 PM 42.1 °F 40.2 °F 39.9 °F 92% 29.89 in 7.0 mi SSE 3.5 mph - N/A   Mostly Cloudy